Lid_Strength_Index
14 13 12 13 13 13 14 14 17 15 14 12 10 10 9 8 8 7 7 7 6 6 5 4 4 4 3 4 4 5 5 7 8 9 10 10 11 12 11 12 12 12 11 11
16 14 14 15 14 13 14 13 13 13 14 9 8 8 8 8 8 8 7 7 6 5 5 5 4 4 5 5 6 6 8 9 9 10 11 12 12 13 13 12 13 12 12 12
18 14 15 18 15 14 13 12 13 15 12 10 10 9 9 8 8 8 7 6 6 6 5 5 5 5 7 7 7 7 9 9 9 10 11 12 12 12 13 14 14 13 13 13
18 19 22 14 10 11 12 12 11 11 10 9 9 9 8 7 7 7 7 6 6 6 6 5 6 7 7 7 8 9 9 9 9 10 11 11 13 13 14 14 14 15 14 14
20 22 16 13 12 13 14 13 10 11 10 9 9 8 9 6 6 6 6 5 7 6 7 7 7 8 8 9 8 8 9 9 9 10 11 12 12 13 13 14 15 15 14 15
19 21 21 14 13 12 11 16 10 10 10 10 9 13 10 7 6 6 6 7 8 8 8 8 8 8 9 9 9 9 9 9 9 9 10 11 11 12 13 14 15 14 15 15
17 18 16 14 14 11 17 16 10 10 10 10 10 9 7 6 6 6 8 8 8 9 9 9 9 9 10 11 11 10 10 10 10 10 10 10 11 12 14 14 15 15 16 15
18 19 21 13 14 15 15 12 11 10 10 10 9 7 6 7 7 8 9 8 9 10 10 11 10 10 12 13 11 11 12 12 11 10 10 10 12 13 14 15 16 16 16 15
18 17 14 14 14 11 11 12 12 11 10 10 9 8 8 8 8 9 9 9 10 11 11 11 11 11 13 14 13 13 14 14 14 13 12 11 13 15 16 15 16 16 15 14
16 14 15 13 11 11 11 12 11 10 10 9 10 9 10 10 10 10 10 10 10 11 13 13 13 13 14 14 14 14 15 15 14 14 14 14 15 15 16 16 15 14 14 14
15 14 13 13 11 11 12 11 11 11 11 11 10 11 10 10 11 11 10 10 12 13 14 14 14 14 14 14 15 15 15 15 15 15 15 16 16 16 16 15 14 14 14 13
17 14 13 13 11 11 12 12 11 12 12 10 11 11 11 12 11 11 11 11 12 12 13 13 14 15 15 15 15 16 16 15 15 15 15 15 15 15 12 12 12 12 12 12
13 11 11 10 10 10 11 11 11 12 12 12 11 11 12 12 12 11 11 11 11 12 12 13 13 14 14 14 14 15 16 15 15 15 16 16 15 14 14 12 11 11 11 11
10 10 12 11 12 10 11 11 10 11 12 12 12 11 11 12 11 11 12 11 11 11 12 12 13 13 13 13 14 14 15 14 15 15 14 14 14 14 13 13 13 13 12 11
10 9 10 10 10 10 10 10 12 12 11 12 11 12 12 12 13 12 12 12 12 12 12 11 12 12 12 13 14 14 15 14 14 14 14 14 14 14 13 13 13 13 12 12
9 9 9 10 10 10 10 10 11 12 12 12 12 12 12 12 13 13 13 13 13 14 13 13 13 12 11 12 12 12 12 12 13 13 13 13 14 14 14 13 13 12 12 13
11 11 10 10 10 10 11 11 11 12 12 12 13 13 13 13 14 14 14 14 14 14 13 13 13 11 10 10 11 11 11 11 12 12 12 13 13 13 13 13 13 12 12 13
9 9 9 10 11 11 11 12 12 12 12 12 12 13 14 14 15 15 14 13 13 13 13 12 11 11 11 11 11 12 12 12 12 12 12 13 13 13 13 12 12 12 12 13
9 10 10 10 11 12 12 12 12 12 12 12 13 14 13 13 13 14 13 13 13 13 13 11 11 11 12 11 11 12 12 12 12 12 12 12 13 13 12 12 12 12 12 13
10 10 10 11 11 11 12 12 12 12 12 12 12 13 13 13 13 13 13 14 14 13 12 12 12 12 12 11 12 12 12 12 13 13 13 13 13 13 12 13 12 12 13 13
12 11 11 11 12 11 11 11 11 11 11 11 12 12 13 13 12 13 13 14 13 12 12 11 12 12 12 12 12 12 12 12 12 13 13 13 12 12 12 12 12 12 13 13
12 11 11 11 11 11 11 11 11 11 11 11 11 12 12 13 12 13 13 13 13 12 12 12 12 13 12 12 12 12 12 12 12 12 12 12 12 12 12 12 12 12 12 12
10 10 10 10 10 11 10 10 10 10 11 11 11 12 12 12 12 13 13 12 12 12 12 12 14 13 13 11 11 11 11 12 12 12 11 11 12 12 12 12 12 12 12 12
11 11 11 11 10 10 11 10 10 10 10 10 10 11 11 12 12 12 11 12 13 12 12 12 13 13 13 11 11 11 11 11 11 11 11 13 11 11 11 11 11 11 11 12
10 10 11 10 10 11 10 10 10 10 10 10 10 10 10 11 11 11 11 12 12 12 12 14 14 13 11 11 11 11 11 11 11 11 11 11 11 11 11 11 11 11 11 11
10 10 10 10 10 11 11 10 10 10 10 10 10 10 10 10 10 11 11 11 11 12 12 12 11 10 10 10 10 10 11 11 10 10 10 10 10 10 10 10 11 11 10 10
10 10 11 11 11 11 10 10 11 11 10 10 10 10 10 10 11 11 11 11 11 11 11 11 11 11 10 10 10 10 10 10 10 10 10 9 10 10 10 10 10 10 10 11